Location: K�ln
(50.9455°N, 6.9544°E)
Time: 13:51:43
(UTC+01:00)

ISS - Pass Details

Date: 11 November 2017
Orbit: 402 x 407 km, 51.6° (Epoch: 22 November)

Event Time Altitude Azimuth Distance (km) Brightness Sun altitude
Exits shadow 05:09:51 38° 83° (E) 634 -2.4 -23.9°
Drops below altitude 10° 05:12:00 10° 90° (E) 1,457 0.1 -23.5°
Sets 05:14:05 0° 92° (E) 2,316 1.5 -23.2°
